Location: De Har
(53.3413°N, 6.6858°E)
Time: 20:55:59
(UTC+00:00)

ATLAS 2AS CENTAUR R/B - Pass Details

Date: 22 April 2026
Orbit: 1052 x 1158 km, 63.7° (Epoch: 21 May)

Event Time Altitude Azimuth Distance (km) Brightness Sun altitude
Exits shadow 01:57:07 - 270° (W) 3,144 4.8 -17.5°
Reaches altitude 10° 01:57:49 10° 273° (W) 2,913 4.7 -17.5°
Maximum altitude 02:04:16 41° 342° (NNW) 1,504 3.7 -16.9°
Drops below altitude 10° 02:10:38 10° 52° (NE) 2,879 6.2 -16.3°
Sets 02:13:28 0° 59° (ENE) 3,833 7.1 -16.0°
